Location: *
(29.1167°S, 130.0000°E)
Time: 14:32:45
(UTC+00:00)

Cosmos 1328 - Pass Details

Date: 21 July 2019
Orbit: 530 x 554 km, 82.5° (Epoch: 22 August)

Event Time Altitude Azimuth Distance (km) Brightness Sun altitude
Rises 09:35:15 0° 189° (S) 2,757 7.3 -11.6°
Reaches altitude 10° 09:37:27 10° 190° (S) 1,857 6.4 -12.1°
Maximum altitude 09:41:31 73° 274° (W) 589 4.1 -12.9°
Drops below altitude 10° 09:45:33 10° 359° (N) 1,834 6.7 -13.8°
Sets 09:47:42 0° 1° (N) 2,720 7.6 -14.2°
